Location: Nelson
(41.2830°S, 173.2830°E)
Time: 18:00:24
(UTC+12:00)

Cosmos 1461 - Pass Details

Date: 14 May 2021
Orbit: 510 x 653 km, 65.0° (Epoch: 19 June)

Event Time Altitude Azimuth Distance (km) Brightness Sun altitude
Rises 18:43:31 0° 205° (SSW) 2,793 6.6 -15.9°
Reaches altitude 10° 18:45:53 10° 195° (SSW) 1,914 5.6 -16.4°
Maximum altitude 18:49:49 33° 130° (SE) 1,018 3.7 -17.1°
Enters shadow 18:50:12 33° 118° (ESE) 1,032 3.7 -17.2°
